Showing default

SKYSAT 1, 39418

Orbit data source: Space-Track

SKYSAT 1, 39418 is a payload satellite owned by Skybox (US) in SSO that was launched on Thu, 21 Nov 2013 UTC via a DNEPR launch vehicle from the Orenburg, Russia (OREN). Payload-class satellites include a variety of spacecraft equipped with specific instruments for various scientific and technological missions. These include communications satellites like Starlink; space stations such as the ISS; scientific satellites like the Hubble; Earth observation satellites from companies like Planet Labs, Umbra, and HawkEye 360; GPS; miniature CubeSats for education and research; and military/defense satellites.

Loading next visibility...
Identifier
39418, 2013-066C
Orbit
SSO
Country
Flag of USUS
Related business
Manufacturer
Skybox
Mission
Operational Commercial Imaging
Bus & Motor
SKYSTAT, Unknown motor
Mass
90 kg wet, 90 kg dry
Launch date (UTC)
2013-11-21 (12 years ago)
Launch vehicle
DNEPR
Launch site
Orenburg, Russia (OREN)
Object type
Payload
Rocket body
Debris
Shape & HBR
Box, 1.0 m
Radar Cross Section
0.800 m², Medium (>0.1 m² and < 1m²)

Expand to show TLE details & history
Last TLE update: 16 hours ago

TLE from 16 hours ago
0 SKYSAT 1
1 39418U 13066C   26071.67903352  .00004153  00000-0  24190-3 0  9994
2 39418  97.3952 124.1299 0020070 289.4072  70.4990 15.12379022673895
Epoch: 2026-03-12T16:17Z
TLE epoch observation values (Epoch: 2026-03-12T16:17:48.496Z)
Latitude
0.00002°
Longitude
69.35237°
Altitude
527.423 km
Speed
7.602 km/s
True Right ascension
08h 16m 31s
True Declination
0° 00' 00"
Sunlit
Object was in full shadow at epoch
Visualization orbit readout
Latitude
Unknown
Longitude
Unknown
Altitude
Unknown
Speed
Unknown
Apparent Right ascension
Unknown
Apparent Declination
Unknown
Sunlit
N/A
Visualization observer readout
Local Sidereal Time
12:33:44
Azimuth
Unknown
Elevation
Unknown
Doppler factor
Unknown
Orbital elements
Apogee altitude
539.779 km
Perigee altitude
512.066 km
Semi-major axis
6,904.06 km
Eccentricity
0.00201
Inclination
97.3952°
RAAN
124.1299°
Arg. of periapsis
289.4072°
True anomaly
70.71597°
Mean anomaly
70.499°
Eccentric anomaly
70.60747°
Mean motion
3.78344 °/min
Orbital period
95.15 mins
BSTAR
0.0002419
Loading maneuver chart data...
Computing Atmospheric mass density...
Loading historical data...
Loading historical data...
Loading historical data...
Loading historical data...
Loading historical data...
Loading historical data...
Loading historical data...

Documentation

Showing up to 5 results
|